logo tempoitalia

Diretta Meteo Aktau, Kazakhstanlunedì 31 agosto ore 10:00

Mappa
Sereno 24 °C Sereno 24 Ore: T.min 16 T.max 27
Ponente Est/Nord-Est Km/h 28.8 Punto di rugiada: -2 °C Umidità: 17% Visibilità: 10 Km
Il sole sorge alle: 06:57 Il sole tramonta alle: 20:14
31 Agosto 2026 10:00 tempo osservato: Sereno Sereno 24 17 1019 vento: Nord E/NE 28.8
31 Agosto 2026 09:30 tempo osservato: Sereno Sereno 22 19 1018 vento: Nord NE 28.8
31 Agosto 2026 09:00 tempo osservato: Sereno Sereno 21 21 1018 vento: Nord NE 28.8
31 Agosto 2026 08:30 tempo osservato: Sereno Sereno 19 24 1018 vento: Nord NE 25.2
31 Agosto 2026 08:00 tempo osservato: Sereno Sereno 17 27 1018 vento: Nord NE 21.6
31 Agosto 2026 07:30 tempo osservato: Sereno Sereno 16 29 1018 vento: Nord N/NE 25.2
31 Agosto 2026 07:00 tempo osservato: Sereno Sereno 16 29 1018 vento: Nord N/NE 21.6
31 Agosto 2026 06:30 tempo osservato: Sereno Sereno 16 29 1018 vento: Nord N/NE 21.6
31 Agosto 2026 06:00 tempo osservato: Sereno Sereno 16 29 1019 vento: Nord NE 14.4
31 Agosto 2026 05:30 tempo osservato: Sereno Sereno 16 31 1018 vento: Nord NE 21.6
31 Agosto 2026 05:00 tempo osservato: Sereno Sereno 16 33 1018 vento: Nord NE 18
31 Agosto 2026 04:30 tempo osservato: Sereno Sereno 17 31 1018 vento: Nord NE 21.6
31 Agosto 2026 04:00 tempo osservato: Sereno Sereno 17 31 1018 vento: Nord NE 18
31 Agosto 2026 03:30 tempo osservato: Sereno Sereno 18 31 1018 vento: Nord NE 21.6
31 Agosto 2026 03:00 tempo osservato: Sereno Sereno 17 39 1018 vento: Nord N/NE 25.2
31 Agosto 2026 02:30 tempo osservato: Sereno Sereno 17 39 1018 vento: Nord N/NE 25.2
31 Agosto 2026 02:00 tempo osservato: Sereno Sereno 18 36 1018 vento: Nord N/NE 25.2
31 Agosto 2026 01:30 tempo osservato: Sereno Sereno 18 36 1018 vento: Nord NE 25.2
31 Agosto 2026 01:00 tempo osservato: Sereno Sereno 18 36 1018 vento: Nord NE 21.6
31 Agosto 2026 00:30 tempo osservato: Sereno Sereno 19 34 1018 vento: Nord NE 21.6
31 Agosto 2026 00:00 tempo osservato: Sereno Sereno 19 34 1018 vento: Nord NE 25.2
30 Agosto 2026 23:30 tempo osservato: Sereno Sereno 20 30 1018 vento: Nord NE 32.4
30 Agosto 2026 23:00 tempo osservato: Sereno Sereno 20 28 1018 vento: Nord NE 25.2
30 Agosto 2026 22:30 tempo osservato: Sereno Sereno 20 26 1018 vento: Nord NE 14.4
30 Agosto 2026 22:00 tempo osservato: Sereno Sereno 21 26 1018 vento: Nord E/NE 18
30 Agosto 2026 21:30 tempo osservato: Sereno Sereno 22 23 1018 vento: Nord E/NE 18
30 Agosto 2026 21:00 tempo osservato: Sereno Sereno 22 24 1018 vento: Nord E/NE 21.6
30 Agosto 2026 20:30 tempo osservato: Sereno Sereno 22 24 1018 vento: Nord E/NE 25.2
30 Agosto 2026 20:00 tempo osservato: Sereno Sereno 23 25 1017 vento: Nord NE 32.4
30 Agosto 2026 19:30 tempo osservato: Sereno Sereno 23 26 1017 vento: Nord NE 36
30 Agosto 2026 19:00 tempo osservato: Sereno Sereno 23 25 1017 vento: Nord NE 32.4
30 Agosto 2026 18:30 tempo osservato: Sereno Sereno 24 23 1017 vento: Nord NE 32.4
30 Agosto 2026 18:00 tempo osservato: Sereno Sereno 24 23 1016 vento: Nord NE 36
30 Agosto 2026 17:30 tempo osservato: Sereno Sereno 25 22 1017 vento: Nord NE 32.4
30 Agosto 2026 17:00 tempo osservato: Sereno Sereno 25 19 1017 vento: Nord E/NE 32.4
30 Agosto 2026 16:30 tempo osservato: Sereno Sereno 25 16 1016 vento: Nord E/NE 36
30 Agosto 2026 16:00 tempo osservato: Sereno Sereno 25 16 1017 vento: Nord NE 36
30 Agosto 2026 15:30 tempo osservato: Sereno Sereno 25 16 1016 vento: Nord NE 39.6
30 Agosto 2026 15:00 tempo osservato: Nuvoloso Nuvoloso 24 19 1016 vento: Nord NE 39.6
30 Agosto 2026 14:30 tempo osservato: Nuvoloso Nuvoloso 25 17 1017 vento: Nord NE 36
30 Agosto 2026 14:00 tempo osservato: Nuvoloso Nuvoloso 25 20 1016 vento: Nord N/NE 36
30 Agosto 2026 13:30 tempo osservato: Nuvoloso Nuvoloso 25 19 1016 vento: Nord N/NE 36
30 Agosto 2026 13:00 tempo osservato: Nuvoloso Nuvoloso 25 20 1017 vento: Nord NE 28.8
30 Agosto 2026 12:30 tempo osservato: Nuvoloso Nuvoloso 26 19 1016 vento: Nord NE 28.8
30 Agosto 2026 12:00 tempo osservato: Nuvoloso Nuvoloso 27 19 1016 vento: Nord NE 28.8
30 Agosto 2026 11:30 tempo osservato: Nuvoloso Nuvoloso 26 22 1017 vento: Nord E/NE 21.6
30 Agosto 2026 11:00 tempo osservato: Nuvoloso Nuvoloso 26 20 1017 vento: Nord NE 21.6